Time,TemperatureF,DewpointF,PressureIn,WindDirection,WindDirectionDegrees,WindSpeedMPH,WindSpeedGustMPH,Humidity,HourlyPrecipIn,Conditions,Clouds,dailyrainin,SoftwareType,DateUTC
2013-04-12 00:03:00,40.0,30.0,29.73,NW,315,3.0,7.0,67,-99.99,,,-99.99,,2013-04-12 05:03:00,
2013-04-12 00:12:00,40.0,30.0,29.72,WNW,300,2.0,5.0,68,-99.99,,,-99.99,,2013-04-12 05:12:00,
2013-04-12 00:23:00,40.0,30.0,29.72,WNW,300,2.0,5.0,68,-99.99,,,-99.99,,2013-04-12 05:23:00,
2013-04-12 00:32:00,39.0,30.0,29.72,West,280,4.0,6.0,68,-99.99,,,-99.99,,2013-04-12 05:32:00,
2013-04-12 00:42:00,40.0,30.0,29.72,West,265,4.0,6.0,67,-99.99,,,-99.99,,2013-04-12 05:42:00,
2013-04-12 00:52:00,40.0,30.0,29.72,West,265,4.0,6.0,67,-99.99,,,-99.99,,2013-04-12 05:52:00,
2013-04-12 01:02:00,39.0,29.0,29.72,West,275,5.0,8.0,67,-99.99,,,-99.99,,2013-04-12 06:02:00,
2013-04-12 01:12:00,39.0,29.0,29.72,WNW,290,5.0,7.0,67,-99.99,,,-99.99,,2013-04-12 06:12:00,
2013-04-12 01:22:00,39.0,29.0,29.72,WNW,290,5.0,7.0,67,-99.99,,,-99.99,,2013-04-12 06:22:00,
2013-04-12 01:32:00,39.0,29.0,29.72,West,280,4.0,6.0,69,-99.99,,,-99.99,,2013-04-12 06:32:00,
2013-04-12 01:42:00,39.0,29.0,29.72,WNW,290,5.0,8.0,69,-99.99,,,-99.99,,2013-04-12 06:42:00,
2013-04-12 01:52:00,39.0,29.0,29.72,WNW,290,5.0,8.0,69,-99.99,,,-99.99,,2013-04-12 06:52:00,
2013-04-12 02:02:00,39.0,29.0,29.72,West,270,5.0,8.0,69,-99.99,,,-99.99,,2013-04-12 07:02:00,
2013-04-12 02:11:00,39.0,30.0,29.72,West,265,4.0,7.0,70,-99.99,,,-99.99,,2013-04-12 07:11:00,
2013-04-12 02:22:00,39.0,30.0,29.72,West,265,4.0,7.0,70,-99.99,,,-99.99,,2013-04-12 07:22:00,
2013-04-12 02:32:00,39.0,30.0,29.71,West,270,5.0,10.0,70,-99.99,,,-99.99,,2013-04-12 07:32:00,
2013-04-12 02:42:00,39.0,29.0,29.71,West,270,6.0,10.0,69,-99.99,,,-99.99,,2013-04-12 07:42:00,
2013-04-12 02:52:00,39.0,29.0,29.71,West,270,6.0,10.0,69,-99.99,,,-99.99,,2013-04-12 07:52:00,
2013-04-12 03:03:00,39.0,30.0,29.71,WNW,300,4.0,9.0,70,-99.99,,,-99.99,,2013-04-12 08:03:00,
2013-04-12 03:12:00,40.0,30.0,29.71,WNW,300,7.0,11.0,69,-99.99,,,-99.99,,2013-04-12 08:12:00,
2013-04-12 03:22:00,40.0,30.0,29.71,WNW,300,7.0,11.0,69,-99.99,,,-99.99,,2013-04-12 08:22:00,
2013-04-12 03:32:00,40.0,30.0,29.71,WNW,300,6.0,14.0,68,-99.99,,,-99.99,,2013-04-12 08:32:00,
2013-04-12 03:42:00,40.0,31.0,29.72,NW,310,5.0,12.0,69,-99.99,,,-99.99,,2013-04-12 08:42:00,
2013-04-12 03:52:00,40.0,31.0,29.72,NW,310,5.0,12.0,69,-99.99,,,-99.99,,2013-04-12 08:52:00,
2013-04-12 04:02:00,40.0,31.0,29.72,NW,305,5.0,9.0,69,-99.99,,,-99.99,,2013-04-12 09:02:00,
2013-04-12 04:12:00,40.0,31.0,29.72,WNW,295,5.0,9.0,70,-99.99,,,-99.99,,2013-04-12 09:12:00,
2013-04-12 04:22:00,40.0,31.0,29.72,WNW,295,5.0,9.0,70,-99.99,,,-99.99,,2013-04-12 09:22:00,
2013-04-12 04:33:00,40.0,31.0,29.72,WNW,300,3.0,10.0,70,-99.99,,,-99.99,,2013-04-12 09:33:00,
2013-04-12 04:43:00,40.0,32.0,29.72,NW,315,4.0,6.0,71,-99.99,,,-99.99,,2013-04-12 09:43:00,
2013-04-12 04:52:00,40.0,32.0,29.72,NW,315,4.0,6.0,71,-99.99,,,-99.99,,2013-04-12 09:52:00,
2013-04-12 05:03:00,40.0,31.0,29.73,NW,320,6.0,9.0,71,-99.99,,,-99.99,,2013-04-12 10:03:00,
2013-04-12 05:12:00,40.0,32.0,29.73,NW,305,6.0,11.0,73,-99.99,,,-99.99,,2013-04-12 10:12:00,
2013-04-12 05:23:00,40.0,32.0,29.73,NW,305,6.0,11.0,73,-99.99,,,-99.99,,2013-04-12 10:23:00,
2013-04-12 05:34:00,39.0,31.0,29.74,WNW,300,5.0,11.0,74,-99.99,,,-99.99,,2013-04-12 10:34:00,
2013-04-12 05:42:00,39.0,32.0,29.74,WNW,295,4.0,9.0,74,-99.99,,,-99.99,,2013-04-12 10:42:00,
2013-04-12 05:52:00,39.0,32.0,29.74,WNW,295,4.0,9.0,74,-99.99,,,-99.99,,2013-04-12 10:52:00,
2013-04-12 06:02:00,39.0,31.0,29.75,WNW,285,5.0,7.0,75,-99.99,,,-99.99,,2013-04-12 11:02:00,
2013-04-12 06:13:00,39.0,30.0,29.75,NW,305,6.0,12.0,72,-99.99,,,-99.99,,2013-04-12 11:13:00,
2013-04-12 06:22:00,39.0,30.0,29.75,NW,305,6.0,12.0,72,-99.99,,,-99.99,,2013-04-12 11:22:00,
2013-04-12 06:32:00,38.0,25.0,29.76,NW,315,11.0,20.0,59,-99.99,,,-99.99,,2013-04-12 11:32:00,
2013-04-12 06:42:00,38.0,25.0,29.76,NW,310,11.0,21.0,59,-99.99,,,-99.99,,2013-04-12 11:42:00,
2013-04-12 06:52:00,38.0,25.0,29.76,NW,310,11.0,21.0,59,-99.99,,,-99.99,,2013-04-12 11:52:00,
2013-04-12 07:02:00,37.0,25.0,29.76,WNW,285,7.0,16.0,61,-99.99,,,-99.99,,2013-04-12 12:02:00,
2013-04-12 07:13:00,37.0,26.0,29.77,WNW,300,5.0,9.0,64,-99.99,,,-99.99,,2013-04-12 12:13:00,
2013-04-12 07:22:00,37.0,26.0,29.77,WNW,300,5.0,9.0,64,-99.99,,,-99.99,,2013-04-12 12:22:00,
2013-04-12 07:33:00,37.0,26.0,29.77,WNW,295,8.0,12.0,64,-99.99,,,-99.99,,2013-04-12 12:33:00,
2013-04-12 07:42:00,36.0,25.0,29.78,WNW,300,7.0,11.0,64,-99.99,,,-99.99,,2013-04-12 12:42:00,
2013-04-12 07:52:00,36.0,25.0,29.78,WNW,300,7.0,11.0,64,-99.99,,,-99.99,,2013-04-12 12:52:00,
2013-04-12 08:03:00,37.0,25.0,29.79,NW,310,10.0,17.0,62,-99.99,,,-99.99,,2013-04-12 13:03:00,
2013-04-12 08:12:00,37.0,25.0,29.79,NW,315,10.0,18.0,62,-99.99,,,-99.99,,2013-04-12 13:12:00,
2013-04-12 08:22:00,37.0,25.0,29.79,NW,315,10.0,18.0,62,-99.99,,,-99.99,,2013-04-12 13:22:00,
2013-04-12 08:32:00,37.0,26.0,29.79,NW,320,11.0,17.0,62,-99.99,,,-99.99,,2013-04-12 13:32:00,
2013-04-12 08:42:00,37.0,25.0,29.79,WNW,300,13.0,20.0,61,-99.99,,,-99.99,,2013-04-12 13:42:00,
2013-04-12 08:52:00,37.0,25.0,29.79,WNW,300,13.0,20.0,61,-99.99,,,-99.99,,2013-04-12 13:52:00,
2013-04-12 09:03:00,38.0,26.0,29.80,NW,315,8.0,18.0,62,-99.99,,,-99.99,,2013-04-12 14:03:00,
2013-04-12 09:13:00,39.0,26.0,29.80,NW,305,7.0,17.0,61,-99.99,,,-99.99,,2013-04-12 14:13:00,
2013-04-12 09:22:00,39.0,26.0,29.80,NW,305,7.0,17.0,61,-99.99,,,-99.99,,2013-04-12 14:22:00,
2013-04-12 09:33:00,39.0,26.0,29.81,NW,320,11.0,23.0,59,-99.99,,,-99.99,,2013-04-12 14:33:00,
2013-04-12 09:42:00,39.0,26.0,29.81,NW,315,14.0,22.0,58,-99.99,,,-99.99,,2013-04-12 14:42:00,
2013-04-12 09:53:00,39.0,26.0,29.81,NW,315,14.0,22.0,58,-99.99,,,-99.99,,2013-04-12 14:53:00,
2013-04-12 10:02:00,40.0,26.0,29.82,NW,315,13.0,21.0,57,-99.99,,,-99.99,,2013-04-12 15:02:00,
2013-04-12 10:12:00,40.0,26.0,29.83,NW,320,15.0,25.0,57,-99.99,,,-99.99,,2013-04-12 15:12:00,
2013-04-12 10:22:00,40.0,26.0,29.83,NW,320,15.0,25.0,57,-99.99,,,-99.99,,2013-04-12 15:22:00,
2013-04-12 10:33:00,41.0,27.0,29.83,NW,325,12.0,29.0,56,-99.99,,,-99.99,,2013-04-12 15:33:00,
2013-04-12 10:43:00,41.0,26.0,29.84,NW,305,16.0,29.0,54,-99.99,,,-99.99,,2013-04-12 15:43:00,
2013-04-12 10:53:00,41.0,26.0,29.84,NW,305,16.0,29.0,54,-99.99,,,-99.99,,2013-04-12 15:53:00,
2013-04-12 11:04:00,42.0,25.0,29.84,NW,315,15.0,22.0,52,-99.99,,,-99.99,,2013-04-12 16:04:00,
2013-04-12 11:13:00,42.0,26.0,29.85,NW,320,16.0,26.0,52,-99.99,,,-99.99,,2013-04-12 16:13:00,
2013-04-12 11:33:00,44.0,28.0,29.86,North,350,10.0,25.0,53,-99.99,,,-99.99,,2013-04-12 16:33:00,
2013-04-12 11:42:00,44.0,27.0,29.86,WNW,300,18.0,27.0,51,-99.99,,,-99.99,,2013-04-12 16:42:00,
2013-04-12 11:52:00,44.0,27.0,29.86,WNW,300,18.0,27.0,51,-99.99,,,-99.99,,2013-04-12 16:52:00,
2013-04-12 12:03:00,44.0,26.0,29.86,WNW,295,12.0,27.0,49,-99.99,,,-99.99,,2013-04-12 17:03:00,
2013-04-12 12:12:00,44.0,26.0,29.87,NW,310,15.0,28.0,49,-99.99,,,-99.99,,2013-04-12 17:12:00,
2013-04-12 12:23:00,44.0,26.0,29.87,NW,310,15.0,28.0,49,-99.99,,,-99.99,,2013-04-12 17:23:00,
2013-04-12 12:33:00,45.0,27.0,29.88,NW,315,17.0,26.0,49,-99.99,,,-99.99,,2013-04-12 17:33:00,
2013-04-12 12:45:00,46.0,29.0,29.87,NNW,335,9.0,23.0,51,-99.99,,,-99.99,,2013-04-12 17:45:00,
2013-04-12 12:58:00,46.0,29.0,29.87,NNW,335,9.0,23.0,51,-99.99,,,-99.99,,2013-04-12 17:58:00,
2013-04-12 13:10:00,47.0,28.0,29.88,NNW,330,16.0,26.0,49,-99.99,,,-99.99,,2013-04-12 18:10:00,
2013-04-12 13:20:00,46.0,28.0,29.88,WNW,300,11.0,25.0,49,-99.99,,,-99.99,,2013-04-12 18:20:00,
2013-04-12 14:26:00,49.0,30.0,29.89,NNW,345,16.0,25.0,48,-99.99,,,-99.99,,2013-04-12 19:26:00,
2013-04-12 14:32:00,50.0,31.0,29.89,NW,325,15.0,23.0,48,-99.99,,,-99.99,,2013-04-12 19:32:00,
2013-04-12 14:43:00,49.0,30.0,29.90,NW,320,12.0,23.0,48,-99.99,,,-99.99,,2013-04-12 19:43:00,
2013-04-12 14:52:00,49.0,30.0,29.90,NW,320,12.0,23.0,48,-99.99,,,-99.99,,2013-04-12 19:52:00,
2013-04-12 15:02:00,50.0,31.0,29.90,NNW,335,12.0,23.0,48,-99.99,,,-99.99,,2013-04-12 20:02:00,
2013-04-12 15:12:00,50.0,31.0,29.90,WNW,295,11.0,23.0,48,-99.99,,,-99.99,,2013-04-12 20:12:00,
2013-04-12 15:22:00,50.0,31.0,29.90,WNW,295,11.0,23.0,48,-99.99,,,-99.99,,2013-04-12 20:22:00,
2013-04-12 15:32:00,51.0,32.0,29.90,NW,320,11.0,22.0,49,-99.99,,,-99.99,,2013-04-12 20:32:00,
2013-04-12 15:42:00,51.0,31.0,29.90,NW,325,13.0,23.0,47,-99.99,,,-99.99,,2013-04-12 20:42:00,
2013-04-12 15:52:00,51.0,31.0,29.90,NW,325,13.0,23.0,47,-99.99,,,-99.99,,2013-04-12 20:52:00,
2013-04-12 16:02:00,51.0,31.0,29.89,NW,310,9.0,23.0,46,-99.99,,,-99.99,,2013-04-12 21:02:00,
2013-04-12 16:12:00,52.0,32.0,29.89,NW,320,8.0,18.0,46,-99.99,,,-99.99,,2013-04-12 21:12:00,
2013-04-12 16:22:00,52.0,32.0,29.89,NW,320,8.0,18.0,46,-99.99,,,-99.99,,2013-04-12 21:22:00,
2013-04-12 16:33:00,52.0,31.0,29.90,NW,320,13.0,22.0,44,-99.99,,,-99.99,,2013-04-12 21:33:00,
2013-04-12 16:43:00,52.0,31.0,29.90,NNW,330,13.0,23.0,44,-99.99,,,-99.99,,2013-04-12 21:43:00,
2013-04-12 16:52:00,52.0,31.0,29.90,NNW,330,13.0,23.0,44,-99.99,,,-99.99,,2013-04-12 21:52:00,
2013-04-12 17:02:00,53.0,32.0,29.90,NW,310,13.0,21.0,45,-99.99,,,-99.99,,2013-04-12 22:02:00,
2013-04-12 17:13:00,53.0,32.0,29.90,WNW,295,12.0,22.0,44,-99.99,,,-99.99,,2013-04-12 22:13:00,
2013-04-12 17:22:00,53.0,32.0,29.90,WNW,295,12.0,22.0,44,-99.99,,,-99.99,,2013-04-12 22:22:00,
2013-04-12 17:32:00,53.0,32.0,29.90,NW,320,12.0,18.0,44,-99.99,,,-99.99,,2013-04-12 22:32:00,
2013-04-12 17:42:00,53.0,31.0,29.90,WNW,300,12.0,18.0,44,-99.99,,,-99.99,,2013-04-12 22:42:00,
2013-04-12 17:52:00,53.0,31.0,29.90,WNW,300,12.0,18.0,44,-99.99,,,-99.99,,2013-04-12 22:52:00,
2013-04-12 18:03:00,53.0,32.0,29.91,NW,325,11.0,21.0,45,-99.99,,,-99.99,,2013-04-12 23:03:00,
2013-04-12 18:12:00,53.0,32.0,29.91,North,350,10.0,17.0,44,-99.99,,,-99.99,,2013-04-12 23:12:00,
2013-04-12 18:22:00,53.0,32.0,29.91,North,350,10.0,17.0,44,-99.99,,,-99.99,,2013-04-12 23:22:00,
2013-04-12 18:32:00,52.0,32.0,29.91,West,280,9.0,17.0,45,-99.99,,,-99.99,,2013-04-12 23:32:00,
2013-04-12 18:42:00,53.0,33.0,29.91,NW,310,11.0,17.0,46,-99.99,,,-99.99,,2013-04-12 23:42:00,
2013-04-12 18:52:00,53.0,33.0,29.91,NW,310,11.0,17.0,46,-99.99,,,-99.99,,2013-04-12 23:52:00,
2013-04-12 19:02:00,53.0,33.0,29.92,NW,310,11.0,18.0,46,-99.99,,,-99.99,,2013-04-13 00:02:00,
2013-04-12 19:12:00,53.0,32.0,29.92,NW,325,9.0,16.0,46,-99.99,,,-99.99,,2013-04-13 00:12:00,
2013-04-12 19:22:00,53.0,32.0,29.92,NW,325,9.0,16.0,46,-99.99,,,-99.99,,2013-04-13 00:22:00,
2013-04-12 19:32:00,53.0,33.0,29.91,NW,315,7.0,11.0,47,-99.99,,,-99.99,,2013-04-13 00:32:00,
2013-04-12 19:42:00,52.0,33.0,29.92,NW,325,10.0,16.0,47,-99.99,,,-99.99,,2013-04-13 00:42:00,
2013-04-12 19:52:00,52.0,33.0,29.92,NW,325,10.0,16.0,47,-99.99,,,-99.99,,2013-04-13 00:52:00,
2013-04-12 20:02:00,51.0,33.0,29.91,NW,325,5.0,12.0,49,-99.99,,,-99.99,,2013-04-13 01:02:00,
2013-04-12 20:13:00,51.0,33.0,29.91,WNW,300,6.0,9.0,50,-99.99,,,-99.99,,2013-04-13 01:13:00,
2013-04-12 20:22:00,51.0,33.0,29.91,WNW,300,6.0,9.0,50,-99.99,,,-99.99,,2013-04-13 01:22:00,
2013-04-12 20:32:00,50.0,33.0,29.92,NW,325,6.0,12.0,51,-99.99,,,-99.99,,2013-04-13 01:32:00,
2013-04-12 20:42:00,50.0,33.0,29.91,NNW,330,5.0,10.0,52,-99.99,,,-99.99,,2013-04-13 01:42:00,
2013-04-12 20:52:00,50.0,33.0,29.91,NNW,330,5.0,10.0,52,-99.99,,,-99.99,,2013-04-13 01:52:00,
2013-04-12 21:02:00,49.0,33.0,29.92,NW,320,4.0,7.0,53,-99.99,,,-99.99,,2013-04-13 02:02:00,
2013-04-12 21:12:00,49.0,33.0,29.92,WNW,295,3.0,6.0,54,-99.99,,,-99.99,,2013-04-13 02:12:00,
2013-04-12 21:22:00,49.0,33.0,29.92,WNW,295,3.0,6.0,54,-99.99,,,-99.99,,2013-04-13 02:22:00,
2013-04-12 21:32:00,49.0,33.0,29.93,North,350,2.0,5.0,54,-99.99,,,-99.99,,2013-04-13 02:32:00,
2013-04-12 21:42:00,49.0,33.0,29.93,NW,325,3.0,4.0,54,-99.99,,,-99.99,,2013-04-13 02:42:00,
2013-04-12 21:52:00,49.0,33.0,29.93,NW,325,3.0,4.0,54,-99.99,,,-99.99,,2013-04-13 02:52:00,
2013-04-12 22:02:00,48.0,33.0,29.94,WNW,285,2.0,4.0,55,-99.99,,,-99.99,,2013-04-13 03:02:00,
2013-04-12 22:12:00,47.0,33.0,29.94,WSW,255,2.0,4.0,57,-99.99,,,-99.99,,2013-04-13 03:12:00,
2013-04-12 22:23:00,47.0,33.0,29.94,WSW,255,2.0,4.0,57,-99.99,,,-99.99,,2013-04-13 03:23:00,
2013-04-12 22:33:00,45.0,34.0,29.95,WSW,240,2.0,3.0,66,-99.99,,,-99.99,,2013-04-13 03:33:00,
2013-04-12 22:42:00,45.0,34.0,29.95,SW,235,2.0,3.0,66,-99.99,,,-99.99,,2013-04-13 03:42:00,
2013-04-12 22:53:00,45.0,34.0,29.95,SW,235,2.0,3.0,66,-99.99,,,-99.99,,2013-04-13 03:53:00,
2013-04-12 23:03:00,44.0,34.0,29.96,SW,225,3.0,3.0,67,-99.99,,,-99.99,,2013-04-13 04:03:00,
2013-04-12 23:12:00,43.0,34.0,29.96,SW,220,2.0,4.0,69,-99.99,,,-99.99,,2013-04-13 04:12:00,
2013-04-12 23:23:00,43.0,34.0,29.96,SW,220,2.0,4.0,69,-99.99,,,-99.99,,2013-04-13 04:23:00,
2013-04-12 23:33:00,44.0,34.0,29.97,West,275,2.0,3.0,66,-99.99,,,-99.99,,2013-04-13 04:33:00,
2013-04-12 23:42:00,41.0,33.0,29.97,SE,140,0.0,2.0,72,-99.99,,,-99.99,,2013-04-13 04:42:00,
2013-04-12 23:53:00,41.0,33.0,29.97,SE,140,0.0,2.0,72,-99.99,,,-99.99,,2013-04-13 04:53:00,